"Pseudo-MPEC" for P115WcM

Created 2020 Sep 19 6:07:21 UT using Find_Orb

Click here for an explanation of pseudo-MPECs

 
 Astrometry: 
     P115WcM  C2020 09 10L!yTU'gwYZ(!'R$YE(u?r7[hLsZa35w_7vmFW[w6olv2p/1R_PJPF51
     P115WcM  C2020 09 10flV_rpo1aEY-:*9cd+`QUIb-.91^%W;]3kSAstrometry(V:M5!OF51
     P115WcM  C2020 09 10O`B9J'SU\Ce1TIj1d.IQyVYVq`kLju2fh7nulPQdtu(fen*t=\MsF51
     P115WcM  C2020 09 13o]D0)KX]fFN4redacted;uueL_9C[u/imN`)ZS9XcB)=A]oruD7*F51
     P115WcM  C2020 09 13*E?click%.?oUnU_JilcHU`+L`L/here;B[j@rlJ7forC\y=+Ue`F51
     P115WcM  C2020 09 13n5*`R,o87AexplanationSd*n`f^8++;BNQvE\Q0vEE+R2D$uwB%F51
     P115WcM ^C2020 09 14.35554321 18 06.430-29 56 42.26   ~9ELq 22.31GVNEOCP568
     P115WcM ^C2020 09 14.35672321 18 06.584-29 56 39.59   ~9ELq 22.29GVNEOCP568
     P115WcM ^C2020 09 14.35790221 18 06.741-29 56 36.83   ~9ELq 22.32GVNEOCP568

Station data:
(568) Mauna Kea  (N19.826116 W155.472200)  US/Hawaii.
(F51) Pan-STARRS 1, Haleakala  (N20.707235 W156.255910)  US/Hawaii.
   Observers N. Primak, A. Schultz, S. Watters, J. Thiel, T. Goggia. Measurer
   PS1 Science Consortium. 1.8-m Ritchey-Chrétien + CCD.

Orbital elements:  P115WcM
   Perihelion 2020 Sep 3.971826 +/- 0.212 TT = 23:19:25 (JD 2459096.471826)
Epoch 2020 Sep 14.0 TT = JDT 2459106.5   Earth MOID: 0.2256   Ma: 0.0587
M   2.88232052 +/- 0.6              (J2000 ecliptic)          AutoNEOCP
n   0.28742227 +/- 0.063            Peri.  320.77678 +/- 0.6
a   2.27399289 +/- 0.332            Node    13.73102 +/- 1.1
e   0.4618534 +/- 0.0694            Incl.    6.04222 +/- 0.59
P   3.43                   H 23.6   G  0.15   U 10.9  
q 1.22374133 +/- 0.0242    Q 3.32424445 +/- 0.747
From 9 observations 2020 Sept. 10-14; mean residual 0".13
Residuals in arcseconds: 
200910 F51  .04-  .37-    200913 F51  .04-  .01+    200914 568  .03+  .01-    
200910 F51  .09+  .33+    200913 F51  .01+  .00     200914 568  .02+  .06-    
200910 F51  .02-  .02+    200913 F51  .09-  .08+    200914 568  .04+  .01-    

Ephemerides (geocentric):
Date (UTC) HH   RA              Dec         delta   r     elong  mag " sig PA
---- -- -- --  -------------   -----------  ------ ------ -----  --- ---- ---
2020 09 19 06  21 30 03.695   -26 46 42.65  .28719 1.2343 138.5 22.7 12.8  98
2020 09 19 07  21 30 09.815   -26 45 04.86  .28729 1.2344 138.5 22.7 13.0  98
2020 09 19 08  21 30 15.935   -26 43 27.07  .28739 1.2344 138.5 22.7 13.2  98
2020 09 19 09  21 30 22.055   -26 41 49.26  .28749 1.2345 138.5 22.7 13.4  98
2020 09 19 10  21 30 28.176   -26 40 11.45  .28759 1.2345 138.5 22.7 13.6  99
2020 09 19 11  21 30 34.296   -26 38 33.63  .28769 1.2346 138.4 22.7 13.8  99
2020 09 19 12  21 30 40.416   -26 36 55.80  .28779 1.2347 138.4 22.7 14.0  99
2020 09 19 13  21 30 46.537   -26 35 17.96  .28789 1.2347 138.4 22.7 14.2  99
2020 09 19 14  21 30 52.658   -26 33 40.12  .28799 1.2348 138.4 22.7 14.4  99
2020 09 19 15  21 30 58.778   -26 32 02.26  .28809 1.2348 138.4 22.7 14.6  99
2020 09 19 16  21 31 04.899   -26 30 24.40  .28819 1.2349 138.4 22.7 14.8  99
2020 09 19 17  21 31 11.020   -26 28 46.53  .28829 1.2350 138.4 22.7 15.0  99
2020 09 19 18  21 31 17.141   -26 27 08.66  .28839 1.2350 138.4 22.7 15.2  99
2020 09 19 19  21 31 23.262   -26 25 30.77  .28849 1.2351 138.4 22.7 15.4  99
2020 09 19 20  21 31 29.383   -26 23 52.88  .28859 1.2351 138.4 22.7 15.6  99
2020 09 19 21  21 31 35.504   -26 22 14.98  .28869 1.2352 138.4 22.7 15.8  99
2020 09 19 22  21 31 41.626   -26 20 37.08  .28879 1.2352 138.4 22.7 16.0  99
2020 09 19 23  21 31 47.747   -26 18 59.17  .28889 1.2353 138.4 22.7 16.2  99
2020 09 20 00  21 31 53.868   -26 17 21.25  .28900 1.2354 138.4 22.7 16.5  99
2020 09 20 01  21 31 59.990   -26 15 43.32  .28910 1.2354 138.4 22.7 16.7  99
2020 09 20 02  21 32 06.111   -26 14 05.39  .28920 1.2355 138.4 22.7 16.9  99
2020 09 20 03  21 32 12.233   -26 12 27.46  .28930 1.2355 138.4 22.7 17.1  99
2020 09 20 04  21 32 18.354   -26 10 49.52  .28940 1.2356 138.4 22.7 17.3  99
2020 09 20 05  21 32 24.476   -26 09 11.57  .28951 1.2357 138.4 22.7 17.5  99
2020 09 20 06  21 32 30.597   -26 07 33.61  .28961 1.2357 138.3 22.7 17.8  99
2020 09 20 07  21 32 36.719   -26 05 55.66  .28971 1.2358 138.3 22.7 18.0 100
2020 09 20 08  21 32 42.840   -26 04 17.69  .28982 1.2359 138.3 22.7 18.2 100
2020 09 20 09  21 32 48.962   -26 02 39.72  .28992 1.2359 138.3 22.7 18.4 100
2020 09 20 10  21 32 55.083   -26 01 01.75  .29003 1.2360 138.3 22.7 18.7 100
2020 09 20 11  21 33 01.205   -25 59 23.77  .29013 1.2360 138.3 22.7 18.9 100
2020 09 20 12  21 33 07.327   -25 57 45.79  .29023 1.2361 138.3 22.7 19.1 100
2020 09 20 13  21 33 13.448   -25 56 07.81  .29034 1.2362 138.3 22.7 19.4 100
2020 09 20 14  21 33 19.570   -25 54 29.82  .29044 1.2362 138.3 22.7 19.6 100
2020 09 20 15  21 33 25.691   -25 52 51.82  .29055 1.2363 138.3 22.7 19.8 100
2020 09 20 16  21 33 31.813   -25 51 13.82  .29065 1.2363 138.3 22.7 20.1 100
2020 09 20 17  21 33 37.934   -25 49 35.82  .29076 1.2364 138.3 22.8 20.3 100
2020 09 20 18  21 33 44.056   -25 47 57.82  .29087 1.2365 138.3 22.8 20.5 100
2020 09 20 19  21 33 50.177   -25 46 19.81  .29097 1.2365 138.3 22.8 20.8 100
2020 09 20 20  21 33 56.299   -25 44 41.80  .29108 1.2366 138.3 22.8 21.0 100
2020 09 20 21  21 34 02.420   -25 43 03.78  .29118 1.2367 138.3 22.8 21.3 100
2020 09 20 22  21 34 08.541   -25 41 25.76  .29129 1.2367 138.3 22.8 21.5 100
2020 09 20 23  21 34 14.663   -25 39 47.74  .29140 1.2368 138.3 22.8 21.7 100
2020 09 21 00  21 34 20.784   -25 38 09.72  .29150 1.2368 138.3 22.8 22.0 100
2020 09 21 01  21 34 26.905   -25 36 31.70  .29161 1.2369 138.2 22.8 22.2 100
2020 09 21 02  21 34 33.026   -25 34 53.67  .29172 1.2370 138.2 22.8 22.5 100
2020 09 21 03  21 34 39.147   -25 33 15.64  .29183 1.2370 138.2 22.8 22.7 100
2020 09 21 04  21 34 45.268   -25 31 37.61  .29193 1.2371 138.2 22.8 23.0 100
2020 09 21 05  21 34 51.389   -25 29 59.58  .29204 1.2372 138.2 22.8 23.2 100